NIMBUS 2 DEB, 37893

Orbit data source: Space-Track

NIMBUS 2 DEB, 37893 is space debris in SSO originally from a launch on Sun, 15 May 1966 UTC launched from the Air Force Western Test Range (AFWTR). Debris objects in space refer to the collection of defunct objects orbiting the Earth. Examples of debris include non-operational satellites, rocket bodies, and fragments generated from explosions, collisions, or faulty payload assembly.

Loading next visibility...
Identifier
37893, 1966-040AY
Orbit
SSO
Country
Flag of USUS
Related business
Manufacturer
Unknown
Mission
Spacecraft
Bus & Motor
Unknown
Mass
Unknown
Launch date (UTC)
1966-05-15 (60 years ago)
Launch vehicle
Unknown
Launch site
Air Force Western Test Range (AFWTR)
Object type
Payload
Rocket body
Debris
Shape & HBR
Unknown shape, 0.1 m
Radar Cross Section
Small (<0.1 m²)

Expand to show TLE details & history
Last TLE update: 2 days ago

TLE from 2 days ago
0 NIMBUS 2 DEB
1 37893U 66040AY  26124.17093047  .00001637  00000-0  26520-2 0  9996
2 37893 100.5068  96.0204 0055641 275.2088 104.2871 13.49357822678600
Epoch: 2026-05-04T04:06Z
TLE epoch observation values (Epoch: 2026-05-04T04:06:08.392Z)
Latitude
19.76452°
Longitude
168.62004°
Altitude
1,087.408 km
Speed
7.305 km/s
True Right ascension
06h 08m 52s
True Declination
19° 39' 37"
Sunlit
Object was in daylight at epoch
Visualization orbit readout
Latitude
Unknown
Longitude
Unknown
Altitude
Unknown
Speed
Unknown
Apparent Right ascension
Unknown
Apparent Declination
Unknown
Sunlit
N/A
Visualization observer readout
Local Sidereal Time
06:42:56
Azimuth
Unknown
Elevation
Unknown
Doppler factor
Unknown
Orbital elements
Apogee altitude
1,113.42 km
Perigee altitude
1,030.514 km
Semi-major axis
7,450.104 km
Eccentricity
0.00556
Inclination
100.5068°
RAAN
96.0204°
Arg. of periapsis
275.2088°
True anomaly
104.90391°
Mean anomaly
104.2871°
Eccentric anomaly
104.59561°
Mean motion
3.3752 °/min
Orbital period
106.66 mins
BSTAR
0.002652
Loading maneuver chart data...
Computing Atmospheric mass density...
Loading historical data...
Loading historical data...
Loading historical data...
Loading historical data...
Loading historical data...
Loading historical data...
Loading historical data...

Documentation

Showing up to 5 results
|